N4ASP-13 Weather Reports


time (UTC)temp
C
wind
direction
speed
KPH
gust
KPH
rain 1hr
cm
rain 24hr
cm
rain mn
cm
humidity
%
barometer
mb
20260504194146 23 141 1.6 11.3 0.00 0.00 0.00 41 1014.8
20260504194046 23 192 3.2 11.3 0.00 0.00 0.00 43 1014.7
20260504193947 23 157 3.2 14.5 0.00 0.00 0.00 41 1014.8
20260504193847 23 275 3.2 14.5 0.00 0.00 0.00 41 1014.8
20260504193746 23 283 4.8 14.5 0.00 0.00 0.00 42 1014.8
20260504193644 23 351 4.8 14.5 0.00 0.00 0.00 43 1015.0
20260504193544 23 133 4.8 14.5 0.00 0.00 0.00 41 1014.9
20260504193443 23 136 4.8 14.5 0.00 0.00 0.00 42 1014.9
20260504193340 23 134 4.8 14.5 0.00 0.00 0.00 41 1014.9
20260504193227 23 323 4.8 14.5 0.00 0.00 0.00 39 1014.9
20260504193126 23 317 4.8 14.5 0.00 0.00 0.00 40 1014.9
20260504193026 23 207 3.2 11.3 0.00 0.00 0.00 41 1015.0
20260504192927 23 184 3.2 11.3 0.00 0.00 0.00 40 1014.8
20260504192826 23 231 3.2 11.3 0.00 0.00 0.00 42 1015.0
20260504192722 23 112 3.2 11.3 0.00 0.00 0.00 44 1015.0
20260504192622 23 177 3.2 11.3 0.00 0.00 0.00 43 1015.0
20260504192524 23 101 3.2 11.3 0.00 0.00 0.00 42 1015.0
20260504192422 23 123 3.2 11.3 0.00 0.00 0.00 42 1015.0
20260504192321 23 163 3.2 11.3 0.00 0.00 0.00 43 1015.0
20260504192214 23 155 3.2 12.9 0.00 0.00 0.00 42 1015.1
20260504192114 23 155 4.8 12.9 0.00 0.00 0.00 41 1015.1
20260504192015 23 119 4.8 12.9 0.00 0.00 0.00 45 1015.0
20260504191913 23 187 4.8 12.9 0.00 0.00 0.00 45 1015.1
20260504191815 23 275 3.2 12.9 0.00 0.00 0.00 42 1015.1
20260504191704 23 298 3.2 12.9 0.00 0.00 0.00 42 1015.1
20260504191604 23 299 3.2 12.9 0.00 0.00 0.00 41 1015.1
20260504191504 23 321 3.2 12.9 0.00 0.00 0.00 41 1015.3
20260504191403 23 309 1.6 12.9 0.00 0.00 0.00 44 1015.3
20260504191305 23 146 1.6 9.7 0.00 0.00 0.00 42 1015.1
20260504191158 23 286 1.6 9.7 0.00 0.00 0.00 40 1015.1
20260504191059 23 221 0.0 9.7 0.00 0.00 0.00 41 1015.3
20260504190959 23 355 0.0 6.4 0.00 0.00 0.00 42 1015.3
20260504190859 23 157 0.0 1.6 0.00 0.00 0.00 41 1015.3
20260504190759 23 172 0.0 0.0 0.00 0.00 0.00 42 1015.3
20260504190655 23 146 0.0 0.0 0.00 0.00 0.00 45 1015.4
20260504190555 23 125 0.0 0.0 0.00 0.00 0.00 44 1015.3
20260504190455 23 164 0.0 0.0 0.00 0.00 0.00 44 1015.3
20260504190353 23 148 0.0 0.0 0.00 0.00 0.00 44 1015.3
20260504190253 23 144 0.0 0.0 0.00 0.00 0.00 43 1015.3
20260504190148 23 336 0.0 0.0 0.00 0.00 0.00 44 1015.3
20260504190049 23 105 0.0 8.0 0.00 0.00 0.00 47 1015.3
20260504185947 23 106 1.6 12.9 0.00 0.00 0.00 46 1015.4
20260504185848 23 107 1.6 12.9 0.00 0.00 0.00 43 1015.4
20260504185749 23 96 3.2 12.9 0.00 0.00 0.00 44 1015.3
20260504185649 23 123 3.2 16.1 0.00 0.00 0.00 45 1015.4
20260504185548 23 63 3.2 16.1 0.00 0.00 0.00 45 1015.3
20260504185448 23 34 3.2 16.1 0.00 0.00 0.00 44 1015.4
20260504185345 23 110 4.8 16.1 0.00 0.00 0.00 42 1015.5
20260504185246 23 214 4.8 16.1 0.00 0.00 0.00 42 1015.5
20260504185144 23 212 4.8 16.1 0.00 0.00 0.00 42 1015.4
20260504185045 23 157 4.8 16.1 0.00 0.00 0.00 43 1015.5
20260504184945 23 142 4.8 16.1 0.00 0.00 0.00 45 1015.4
20260504184846 23 164 4.8 16.1 0.00 0.00 0.00 44 1015.5
20260504184743 23 147 4.8 16.1 0.00 0.00 0.00 44 1015.4
20260504184644 23 158 4.8 11.3 0.00 0.00 0.00 45 1015.5
20260504184545 23 312 4.8 11.3 0.00 0.00 0.00 44 1015.5
20260504184449 23 351 4.8 11.3 0.00 0.00 0.00 44 1015.5
20260504184341 23 0 4.8 11.3 0.00 0.00 0.00 43 1015.4
20260504184239 23 290 4.8 11.3 0.00 0.00 0.00 45 1015.5
20260504184141 23 55 3.2 11.3 0.00 0.00 0.00 47 1015.4
20260504184039 23 158 3.2 11.3 0.00 0.00 0.00 45 1015.5
20260504183934 23 74 3.2 11.3 0.00 0.00 0.00 44 1015.4
20260504183834 23 173 1.6 11.3 0.00 0.00 0.00 44 1015.5
20260504183734 23 176 1.6 11.3 0.00 0.00 0.00 46 1015.5
20260504183634 23 178 1.6 11.3 0.00 0.00 0.00 44 1015.4
20260504183533 23 104 0.0 11.3 0.00 0.00 0.00 46 1015.4
20260504183431 23 161 0.0 6.4 0.00 0.00 0.00 46 1015.4
20260504183332 22 160 0.0 1.6 0.00 0.00 0.00 45 1015.5
20260504183231 22 160 0.0 0.0 0.00 0.00 0.00 46 1015.5
20260504183131 22 165 0.0 0.0 0.00 0.00 0.00 46 1015.5
20260504183030 22 140 0.0 0.0 0.00 0.00 0.00 45 1015.6
20260504182931 22 303 0.0 0.0 0.00 0.00 0.00 43 1015.6
20260504182827 22 303 0.0 0.0 0.00 0.00 0.00 43 1015.6
20260504182729 22 302 0.0 0.0 0.00 0.00 0.00 43 1015.5
20260504182626 22 275 0.0 0.0 0.00 0.00 0.00 43 1015.7
20260504182526 22 256 0.0 0.0 0.00 0.00 0.00 44 1015.6
20260504182425 22 286 0.0 0.0 0.00 0.00 0.00 44 1015.7
20260504182325 22 319 0.0 0.0 0.00 0.00 0.00 45 1015.6
20260504182225 22 225 0.0 0.0 0.00 0.00 0.00 45 1015.6
20260504182124 22 82 0.0 0.0 0.00 0.00 0.00 45 1015.7
20260504182025 22 62 0.0 0.0 0.00 0.00 0.00 46 1015.7
20260504181821 22 148 0.0 0.0 0.00 0.00 0.00 45 1015.7
20260504181719 22 117 0.0 0.0 0.00 0.00 0.00 46 1015.7
20260504181619 22 84 0.0 0.0 0.00 0.00 0.00 44 1015.7
20260504181518 22 244 0.0 0.0 0.00 0.00 0.00 44 1015.7
20260504181418 22 91 0.0 0.0 0.00 0.00 0.00 45 1015.8
20260504181319 22 185 0.0 0.0 0.00 0.00 0.00 45 1015.8
20260504181215 22 298 0.0 0.0 0.00 0.00 0.00 45 1015.7
20260504181114 22 271 0.0 0.0 0.00 0.00 0.00 44 1015.7
20260504181015 22 244 0.0 0.0 0.00 0.00 0.00 46 1015.7
20260504180913 22 312 0.0 0.0 0.00 0.00 0.00 47 1015.7
20260504180813 22 26 0.0 0.0 0.00 0.00 0.00 46 1015.7
20260504180709 22 143 0.0 0.0 0.00 0.00 0.00 46 1015.7
20260504180607 22 224 0.0 0.0 0.00 0.00 0.00 44 1015.7
20260504180507 22 243 0.0 0.0 0.00 0.00 0.00 45 1015.8
20260504180409 22 48 0.0 0.0 0.00 0.00 0.00 45 1015.7
20260504180307 22 273 0.0 0.0 0.00 0.00 0.00 46 1015.7
20260504180205 22 355 0.0 0.0 0.00 0.00 0.00 47 1015.7
20260504180105 22 355 0.0 0.0 0.00 0.00 0.00 45 1015.7
20260504180005 22 117 0.0 0.0 0.00 0.00 0.00 45 1015.8
20260504175905 22 342 0.0 0.0 0.00 0.00 0.00 44 1015.8
20260504175802 22 341 0.0 0.0 0.00 0.00 0.00 45 1015.8
20260504175704 22 341 0.0 0.0 0.00 0.00 0.00 46 1015.8
20260504175601 21 341 0.0 0.0 0.00 0.00 0.00 46 1015.8
20260504175500 21 341 0.0 0.0 0.00 0.00 0.00 44 1015.7
20260504175401 21 327 0.0 0.0 0.00 0.00 0.00 44 1015.8
20260504175301 22 313 0.0 0.0 0.00 0.00 0.00 45 1015.7
20260504175202 22 296 0.0 0.0 0.00 0.00 0.00 44 1015.8
20260504175059 22 315 0.0 0.0 0.00 0.00 0.00 47 1015.8
20260504174958 22 334 0.0 0.0 0.00 0.00 0.00 45 1015.9
20260504174858 22 227 0.0 0.0 0.00 0.00 0.00 45 1015.9
20260504174759 21 166 0.0 0.0 0.00 0.00 0.00 45 1015.9
20260504174659 21 178 0.0 0.0 0.00 0.00 0.00 46 1015.9
20260504174558 21 317 0.0 0.0 0.00 0.00 0.00 46 1015.9
20260504174453 21 309 0.0 0.0 0.00 0.00 0.00 45 1015.9
20260504174351 21 278 0.0 0.0 0.00 0.00 0.00 44 1015.9
20260504174251 21 163 0.0 0.0 0.00 0.00 0.00 45 1015.9
20260504174150 21 169 0.0 0.0 0.00 0.00 0.00 46 1016.0
20260504174052 21 67 0.0 0.0 0.00 0.00 0.00 47 1015.9
20260504173944 21 302 0.0 0.0 0.00 0.00 0.00 45 1015.9
20260504173844 21 312 0.0 0.0 0.00 0.00 0.00 45 1016.0
20260504173744 21 317 0.0 0.0 0.00 0.00 0.00 45 1016.0
20260504173645 21 169 0.0 0.0 0.00 0.00 0.00 46 1015.9
20260504173545 21 237 0.0 0.0 0.00 0.00 0.00 44 1016.0
20260504173441 21 224 0.0 0.0 0.00 0.00 0.00 45 1015.9
20260504173338 21 212 0.0 0.0 0.00 0.00 0.00 46 1016.0
20260504173238 21 44 0.0 0.0 0.00 0.00 0.00 46 1016.0
20260504173139 21 324 0.0 0.0 0.00 0.00 0.00 46 1016.0
20260504173038 21 336 0.0 0.0 0.00 0.00 0.00 47 1016.0
20260504172939 21 281 0.0 0.0 0.00 0.00 0.00 45 1016.0
20260504172838 21 329 0.0 0.0 0.00 0.00 0.00 45 1015.9
20260504172737 21 311 0.0 0.0 0.00 0.00 0.00 45 1016.0
20260504172636 21 331 0.0 0.0 0.00 0.00 0.00 45 1016.1
20260504172536 21 302 0.0 0.0 0.00 0.00 0.00 45 1016.0
20260504172434 21 288 0.0 0.0 0.00 0.00 0.00 45 1016.1
20260504172335 21 296 0.0 0.0 0.00 0.00 0.00 44 1016.1
20260504172232 22 286 0.0 0.0 0.00 0.00 0.00 44 1016.0
20260504172133 22 225 0.0 0.0 0.00 0.00 0.00 46 1016.1
20260504172033 21 169 0.0 0.0 0.00 0.00 0.00 44 1016.0
20260504171932 21 199 0.0 0.0 0.00 0.00 0.00 45 1016.0
20260504171833 21 82 0.0 0.0 0.00 0.00 0.00 46 1016.0
20260504171734 21 128 0.0 0.0 0.00 0.00 0.00 46 1016.0
20260504171630 21 297 0.0 0.0 0.00 0.00 0.00 46 1015.9
20260504171532 21 277 0.0 0.0 0.00 0.00 0.00 45 1016.0
20260504171430 21 82 0.0 0.0 0.00 0.00 0.00 45 1016.0
20260504171332 21 321 0.0 0.0 0.00 0.00 0.00 46 1016.0
20260504171228 21 346 0.0 0.0 0.00 0.00 0.00 44 1016.0
20260504171126 21 299 0.0 0.0 0.00 0.00 0.00 45 1016.1
20260504171026 21 167 0.0 0.0 0.00 0.00 0.00 45 1016.1
20260504170925 21 301 0.0 0.0 0.00 0.00 0.00 45 1016.0
20260504170825 21 355 0.0 0.0 0.00 0.00 0.00 45 1016.0
20260504170720 21 329 0.0 0.0 0.00 0.00 0.00 47 1016.1
20260504170621 21 328 0.0 0.0 0.00 0.00 0.00 47 1016.0
20260504170521 21 346 0.0 0.0 0.00 0.00 0.00 47 1016.0
20260504170421 21 346 0.0 0.0 0.00 0.00 0.00 48 1016.0
20260504170319 21 281 0.0 0.0 0.00 0.00 0.00 49 1016.1
20260504170219 21 207 0.0 0.0 0.00 0.00 0.00 47 1016.1
20260504170117 21 187 0.0 0.0 0.00 0.00 0.00 48 1016.0
20260504160420 20 283 0.0 0.0 0.00 0.00 0.00 47 1016.9
20260504160319 20 306 0.0 0.0 0.00 0.00 0.00 50 1016.7
20260504160220 20 319 0.0 0.0 0.00 0.00 0.00 50 1016.9
20260504160119 20 321 0.0 0.0 0.00 0.00 0.00 50 1016.9
20260504151107 18 334 0.0 0.0 0.00 0.00 0.00 46 1017.8
20260504151008 18 315 0.0 0.0 0.00 0.00 0.00 47 1017.8
20260504150907 18 298 0.0 0.0 0.00 0.00 0.00 46 1017.8
20260504150808 18 355 0.0 0.0 0.00 0.00 0.00 48 1017.8
20260504150707 18 308 0.0 0.0 0.00 0.00 0.00 46 1017.9
20260504150606 18 299 0.0 0.0 0.00 0.00 0.00 47 1017.8
20260504150508 18 294 0.0 0.0 0.00 0.00 0.00 46 1017.7
20260504150408 18 257 0.0 0.0 0.00 0.00 0.00 47 1017.8
20260504150308 18 303 0.0 0.0 0.00 0.00 0.00 47 1017.8
20260504150207 18 308 0.0 0.0 0.00 0.00 0.00 47 1017.7
20260504150107 18 275 0.0 0.0 0.00 0.00 0.00 46 1017.7
20260504141258 17 218 3.2 9.7 0.00 0.00 0.00 49 1017.4
20260504141158 17 219 3.2 9.7 0.00 0.00 0.00 49 1017.3
20260504141058 17 215 3.2 9.7 0.00 0.00 0.00 48 1017.2
20260504140959 17 212 4.8 9.7 0.00 0.00 0.00 48 1017.2
20260504140859 17 211 4.8 9.7 0.00 0.00 0.00 49 1017.3
20260504140759 17 294 4.8 11.3 0.00 0.00 0.00 47 1017.2
20260504140659 16 276 4.8 11.3 0.00 0.00 0.00 48 1017.3
20260504140559 16 275 4.8 11.3 0.00 0.00 0.00 49 1017.3
20260504140459 17 294 4.8 11.3 0.00 0.00 0.00 47 1017.2
20260504140359 17 290 3.2 11.3 0.00 0.00 0.00 48 1017.4
20260504140259 16 307 3.2 11.3 0.00 0.00 0.00 49 1017.2
20260504140200 16 305 3.2 11.3 0.00 0.00 0.00 50 1017.3
20260504130749 16 261 0.0 0.0 0.00 0.00 0.00 51 1017.0
20260504130650 16 349 0.0 1.6 0.00 0.00 0.00 51 1016.9
20260504130550 16 278 0.0 1.6 0.00 0.00 0.00 50 1016.9
20260504130450 16 283 0.0 1.6 0.00 0.00 0.00 51 1016.9
20260504130350 16 284 0.0 1.6 0.00 0.00 0.00 51 1016.9
20260504130247 16 233 0.0 1.6 0.00 0.00 0.00 52 1016.7
20260504130147 15 298 0.0 4.8 0.00 0.00 0.00 55 1016.7
20260504120318 13 336 1.6 4.8 0.00 0.00 0.00 57 1016.6
20260504120214 13 336 1.6 4.8 0.00 0.00 0.00 56 1016.6
20260504120115 13 336 1.6 4.8 0.00 0.00 0.00 57 1016.7
20260504110659 11 242 0.0 3.2 0.00 0.00 0.00 60 1016.4
20260504110549 11 242 0.0 3.2 0.00 0.00 0.00 59 1016.4
20260504110451 11 248 0.0 3.2 0.00 0.00 0.00 59 1016.4
20260504110349 11 248 0.0 3.2 0.00 0.00 0.00 59 1016.4
20260504110249 11 248 0.0 3.2 0.00 0.00 0.00 59 1016.4
20260504110149 11 248 0.0 3.2 0.00 0.00 0.00 59 1016.4
20260504100532 11 274 4.8 14.5 0.00 0.00 0.00 58 1016.4
20260504100426 11 290 6.4 14.5 0.00 0.00 0.00 58 1016.4
20260504100326 11 307 6.4 14.5 0.00 0.00 0.00 57 1016.3
20260504100225 11 307 6.4 14.5 0.00 0.00 0.00 57 1016.4
20260504100124 11 304 8.0 14.5 0.00 0.00 0.00 57 1016.5
20260504081958 10 225 0.0 3.2 0.00 0.00 0.00 52 1016.3
20260504081856 10 225 0.0 3.2 0.00 0.00 0.00 52 1016.2
20260504081758 10 225 0.0 3.2 0.00 0.00 0.00 53 1016.2
20260504081651 10 225 0.0 3.2 0.00 0.00 0.00 52 1016.3
20260504081550 10 225 0.0 3.2 0.00 0.00 0.00 52 1016.3
20260504081451 10 225 0.0 3.2 0.00 0.00 0.00 52 1016.3
20260504081350 10 225 0.0 3.2 0.00 0.00 0.00 53 1016.3
20260504081247 10 225 0.0 3.2 0.00 0.00 0.00 52 1016.3
20260504081146 10 225 0.0 3.2 0.00 0.00 0.00 52 1016.3
20260504081046 10 225 0.0 3.2 0.00 0.00 0.00 52 1016.3
20260504080944 10 225 0.0 3.2 0.00 0.00 0.00 52 1016.3
20260504080844 10 225 0.0 3.2 0.00 0.00 0.00 52 1016.3
20260504080742 10 225 0.0 3.2 0.00 0.00 0.00 52 1016.2
20260504080642 10 225 0.0 3.2 0.00 0.00 0.00 53 1016.3
20260504080550 10 225 0.0 3.2 0.00 0.00 0.00 53 1016.3
20260504080439 10 225 0.0 3.2 0.00 0.00 0.00 52 1016.2
20260504080343 10 225 0.0 3.2 0.00 0.00 0.00 52 1016.2
20260504080235 10 225 0.0 3.2 0.00 0.00 0.00 52 1016.3
20260504080130 10 225 0.0 3.2 0.00 0.00 0.00 53 1016.2
20260504070412 10 205 1.6 3.2 0.00 0.00 0.00 64 1016.5
20260504070308 10 205 1.6 3.2 0.00 0.00 0.00 64 1016.3
20260504070210 10 205 1.6 3.2 0.00 0.00 0.00 64 1016.4
20260504070108 10 205 1.6 3.2 0.00 0.00 0.00 65 1016.3
20260504060212 10 201 0.0 0.0 0.00 0.00 0.00 61 1016.3
20260504060109 10 201 0.0 0.0 0.00 0.00 0.00 61 1016.4
20260504050731 10 201 0.0 0.0 0.00 0.00 0.00 55 1016.7
20260504050631 10 201 0.0 0.0 0.00 0.00 0.00 55 1016.9
20260504050532 10 201 0.0 0.0 0.00 0.00 0.00 55 1016.7
20260504050432 11 201 0.0 0.0 0.00 0.00 0.00 55 1016.7
20260504050332 11 201 0.0 0.0 0.00 0.00 0.00 55 1016.9
20260504050231 11 201 0.0 0.0 0.00 0.00 0.00 55 1016.7
20260504050131 11 201 0.0 0.0 0.00 0.00 0.00 56 1016.7
20260504045931 11 201 0.0 1.6 0.00 0.00 0.00 55 1016.7
20260504045831 11 201 0.0 1.6 0.00 0.00 0.00 56 1016.7
20260504045732 11 201 0.0 1.6 0.00 0.00 0.00 56 1016.7
20260504045631 11 201 0.0 1.6 0.00 0.00 0.00 56 1016.7
20260504045531 11 201 0.0 1.6 0.00 0.00 0.00 56 1016.7
20260504045432 11 201 0.0 1.6 0.00 0.00 0.00 56 1016.9
20260504045332 11 201 0.0 1.6 0.00 0.00 0.00 56 1016.6
20260504045232 11 201 0.0 1.6 0.00 0.00 0.00 56 1016.7
20260504045132 11 201 0.0 1.6 0.00 0.00 0.00 56 1016.9
20260504045031 11 201 0.0 1.6 0.00 0.00 0.00 56 1016.7
20260504044931 11 201 0.0 1.6 0.00 0.00 0.00 57 1016.7
20260504044831 11 201 0.0 1.6 0.00 0.00 0.00 57 1016.9
20260504044732 11 201 0.0 1.6 0.00 0.00 0.00 58 1016.9
20260504044632 11 201 0.0 1.6 0.00 0.00 0.00 58 1016.9
20260504044532 11 201 0.0 1.6 0.00 0.00 0.00 58 1016.6
20260504044431 11 201 0.0 1.6 0.00 0.00 0.00 58 1016.7
20260504044333 11 201 0.0 1.6 0.00 0.00 0.00 59 1016.6
20260504044232 11 201 0.0 1.6 0.00 0.00 0.00 59 1016.6
20260504044130 11 201 0.0 1.6 0.00 0.00 0.00 60 1016.7
20260504044032 11 201 0.0 1.6 0.00 0.00 0.00 60 1016.7
20260504043931 11 201 0.0 1.6 0.00 0.00 0.00 60 1016.7
20260504043832 11 201 0.0 0.0 0.00 0.00 0.00 61 1016.6
20260504043732 11 201 0.0 0.0 0.00 0.00 0.00 61 1016.7
20260504043632 11 201 0.0 0.0 0.00 0.00 0.00 62 1016.6
20260504043528 11 201 0.0 0.0 0.00 0.00 0.00 62 1016.6
20260504043427 11 201 0.0 0.0 0.00 0.00 0.00 62 1016.5
20260504043328 11 201 0.0 0.0 0.00 0.00 0.00 62 1016.4
20260504043229 11 201 0.0 0.0 0.00 0.00 0.00 62 1016.5
20260504043128 11 201 0.0 0.0 0.00 0.00 0.00 62 1016.6
20260504043028 11 201 0.0 0.0 0.00 0.00 0.00 62 1016.5
20260504042926 11 201 0.0 0.0 0.00 0.00 0.00 62 1016.5
20260504042828 11 201 0.0 0.0 0.00 0.00 0.00 62 1016.6
20260504042727 11 201 0.0 0.0 0.00 0.00 0.00 62 1016.5
20260504042628 11 201 0.0 0.0 0.00 0.00 0.00 62 1016.6
20260504042528 11 201 0.0 0.0 0.00 0.00 0.00 62 1016.5
20260504042427 11 201 0.0 0.0 0.00 0.00 0.00 62 1016.6
20260504042329 11 201 0.0 0.0 0.00 0.00 0.00 61 1016.7
20260504042227 11 201 0.0 0.0 0.00 0.00 0.00 61 1016.6
20260504042127 11 201 0.0 0.0 0.00 0.00 0.00 62 1016.6
20260504042028 11 201 0.0 0.0 0.00 0.00 0.00 61 1016.5
20260504041927 11 201 0.0 0.0 0.00 0.00 0.00 61 1016.5
20260504041828 11 201 0.0 0.0 0.00 0.00 0.00 61 1016.6
20260504041727 11 201 0.0 0.0 0.00 0.00 0.00 61 1016.6
20260504041627 11 201 0.0 0.0 0.00 0.00 0.00 61 1016.5
20260504041528 11 201 0.0 1.6 0.00 0.00 0.00 61 1016.6
20260504041427 11 201 0.0 1.6 0.00 0.00 0.00 61 1016.5
20260504041327 11 201 0.0 1.6 0.00 0.00 0.00 62 1016.5
20260504041227 11 201 0.0 1.6 0.00 0.00 0.00 61 1016.6
20260504041127 11 201 0.0 1.6 0.00 0.00 0.00 61 1016.5
20260504041027 11 201 0.0 1.6 0.00 0.00 0.00 61 1016.5
20260504040927 11 201 0.0 1.6 0.00 0.00 0.00 61 1016.6
20260504040827 11 201 0.0 1.6 0.00 0.00 0.00 61 1016.6
20260504040727 11 201 0.0 1.6 0.00 0.00 0.00 61 1016.5
20260504040627 11 201 0.0 1.6 0.00 0.00 0.00 61 1016.6
20260504040528 11 201 0.0 1.6 0.00 0.00 0.00 61 1016.5
20260504040427 11 201 0.0 1.6 0.00 0.00 0.00 61 1016.6
20260504040328 11 201 0.0 1.6 0.00 0.00 0.00 61 1016.5
20260504040206 11 201 0.0 1.6 0.00 0.00 0.00 61 1016.5
20260504040105 11 201 0.0 1.6 0.00 0.00 0.00 61 1016.4
20260504040007 11 201 0.0 1.6 0.00 0.00 0.00 61 1016.4
20260504035904 11 201 0.0 1.6 0.00 0.00 0.00 61 1016.5
20260504035759 11 201 0.0 11.3 0.00 0.00 0.00 61 1016.4
20260504035657 11 201 0.0 11.3 0.00 0.00 0.00 61 1016.4
20260504035558 11 201 0.0 11.3 0.00 0.00 0.00 61 1016.3
20260504035456 11 201 0.0 11.3 0.00 0.00 0.00 61 1016.3
20260504035356 11 201 0.0 11.3 0.00 0.00 0.00 61 1016.3
20260504035255 11 201 0.0 11.3 0.00 0.00 0.00 61 1016.3
20260504035157 11 201 0.0 11.3 0.00 0.00 0.00 61 1016.3
20260504035054 11 201 0.0 11.3 0.00 0.00 0.00 61 1016.3
20260504034953 11 201 0.0 11.3 0.00 0.00 0.00 60 1016.3
20260504034854 11 201 0.0 11.3 0.00 0.00 0.00 60 1016.3
20260504034755 11 184 0.0 3.2 0.00 0.00 0.00 60 1016.3
20260504034653 11 184 0.0 1.6 0.00 0.00 0.00 60 1016.4
20260504034554 11 184 0.0 1.6 0.00 0.00 0.00 59 1016.4
20260504034451 11 184 0.0 1.6 0.00 0.00 0.00 59 1016.4
20260504034351 11 184 0.0 1.6 0.00 0.00 0.00 58 1016.5
20260504034250 11 184 0.0 1.6 0.00 0.00 0.00 58 1016.4
20260504034148 11 184 0.0 1.6 0.00 0.00 0.00 57 1016.5
20260504034049 11 184 0.0 1.6 0.00 0.00 0.00 57 1016.4
20260504033947 11 184 0.0 1.6 0.00 0.00 0.00 56 1016.4
20260504033846 11 184 0.0 1.6 0.00 0.00 0.00 56 1016.4
20260504033744 11 184 0.0 1.6 0.00 0.00 0.00 56 1016.4
20260504033641 11 184 0.0 1.6 0.00 0.00 0.00 56 1016.4
20260504033542 11 184 0.0 1.6 0.00 0.00 0.00 55 1016.4
20260504033439 11 184 0.0 1.6 0.00 0.00 0.00 54 1016.4
20260504033341 11 184 0.0 1.6 0.00 0.00 0.00 54 1016.4
20260504033239 11 184 0.0 1.6 0.00 0.00 0.00 54 1016.4
20260504033136 11 184 0.0 1.6 0.00 0.00 0.00 53 1016.3
20260504033035 11 184 0.0 1.6 0.00 0.00 0.00 53 1016.4
20260504032935 11 184 0.0 1.6 0.00 0.00 0.00 52 1016.5
20260504032835 11 184 0.0 1.6 0.00 0.00 0.00 52 1016.4
20260504032735 11 184 0.0 1.6 0.00 0.00 0.00 53 1016.4
20260504032637 11 184 0.0 0.0 0.00 0.00 0.00 53 1016.5
20260504032527 11 184 0.0 0.0 0.00 0.00 0.00 52 1016.5
20260504032426 11 184 0.0 0.0 0.00 0.00 0.00 52 1016.6
20260504032225 11 184 0.0 0.0 0.00 0.00 0.00 52 1016.6
20260504032126 11 184 0.0 0.0 0.00 0.00 0.00 52 1016.5
20260504032026 11 184 0.0 0.0 0.00 0.00 0.00 52 1016.6
20260504031924 11 184 0.0 1.6 0.00 0.00 0.00 52 1016.6
20260504031823 11 184 0.0 3.2 0.00 0.00 0.00 52 1016.6
20260504031722 11 184 0.0 3.2 0.00 0.00 0.00 52 1016.6
20260504031620 11 184 0.0 3.2 0.00 0.00 0.00 52 1016.7
20260504031515 11 184 0.0 3.2 0.00 0.00 0.00 52 1016.7
20260504031414 11 184 0.0 3.2 0.00 0.00 0.00 52 1016.6
20260504031314 11 184 0.0 3.2 0.00 0.00 0.00 52 1016.6
20260504031212 11 184 0.0 3.2 0.00 0.00 0.00 52 1016.7
20260504031112 11 184 0.0 3.2 0.00 0.00 0.00 53 1016.6
20260504031004 11 184 0.0 3.2 0.00 0.00 0.00 53 1016.6
20260504030902 11 184 0.0 3.2 0.00 0.00 0.00 53 1016.6
20260504030801 11 184 0.0 3.2 0.00 0.00 0.00 53 1016.6
20260504030702 11 184 0.0 3.2 0.00 0.00 0.00 53 1016.6
20260504030602 11 184 0.0 3.2 0.00 0.00 0.00 54 1016.6
20260504030500 11 184 0.0 3.2 0.00 0.00 0.00 53 1016.6
20260504030359 11 185 0.0 0.0 0.00 0.00 0.00 53 1016.6
20260504030301 11 185 0.0 0.0 0.00 0.00 0.00 53 1016.7
20260504030157 11 185 0.0 0.0 0.00 0.00 0.00 53 1016.7
20260504030056 11 185 0.0 0.0 0.00 0.00 0.00 53 1016.9
20260504025955 11 185 0.0 0.0 0.00 0.00 0.00 52 1016.7
20260504025854 11 185 0.0 0.0 0.00 0.00 0.00 52 1016.7
20260504025752 11 185 0.0 0.0 0.00 0.00 0.00 52 1016.7
20260504025651 11 185 0.0 0.0 0.00 0.00 0.00 52 1016.9
20260504025551 11 185 0.0 0.0 0.00 0.00 0.00 52 1016.9
20260504025446 11 185 0.0 0.0 0.00 0.00 0.00 52 1016.7
20260504025343 11 185 0.0 0.0 0.00 0.00 0.00 52 1016.9
20260504025244 11 185 0.0 0.0 0.00 0.00 0.00 52 1016.9
20260504025143 11 185 0.0 0.0 0.00 0.00 0.00 53 1017.0
20260504025044 11 185 0.0 0.0 0.00 0.00 0.00 53 1016.9
20260504024944 11 185 0.0 0.0 0.00 0.00 0.00 53 1016.7
20260504024843 11 185 0.0 0.0 0.00 0.00 0.00 53 1017.0
20260504024743 11 185 0.0 0.0 0.00 0.00 0.00 53 1016.9
20260504024644 11 185 0.0 0.0 0.00 0.00 0.00 53 1016.9
20260504024543 11 185 0.0 0.0 0.00 0.00 0.00 53 1016.9
20260504024444 11 185 0.0 0.0 0.00 0.00 0.00 53 1016.9
20260504024343 11 185 0.0 0.0 0.00 0.00 0.00 53 1016.9
20260504024242 11 185 0.0 0.0 0.00 0.00 0.00 53 1016.9
20260504024143 11 185 0.0 0.0 0.00 0.00 0.00 53 1016.9
20260504024043 11 185 0.0 0.0 0.00 0.00 0.00 53 1016.9
20260504023944 11 185 0.0 0.0 0.00 0.00 0.00 53 1016.9
20260504023843 11 185 0.0 0.0 0.00 0.00 0.00 53 1016.7
20260504023745 11 185 0.0 0.0 0.00 0.00 0.00 53 1016.9
20260504023643 11 185 0.0 0.0 0.00 0.00 0.00 53 1016.9
20260504023544 11 185 0.0 0.0 0.00 0.00 0.00 53 1016.7
20260504023443 11 185 0.0 0.0 0.00 0.00 0.00 53 1016.7
20260504023344 11 185 0.0 0.0 0.00 0.00 0.00 53 1016.9
20260504023243 11 185 0.0 0.0 0.00 0.00 0.00 53 1016.9
20260504023144 11 185 0.0 0.0 0.00 0.00 0.00 53 1016.9
20260504023043 11 185 0.0 0.0 0.00 0.00 0.00 53 1016.9
20260504022944 11 185 0.0 0.0 0.00 0.00 0.00 53 1016.9
20260504022844 11 185 0.0 0.0 0.00 0.00 0.00 53 1016.9
20260504022743 11 185 0.0 0.0 0.00 0.00 0.00 53 1016.9
20260504022643 11 185 0.0 0.0 0.00 0.00 0.00 53 1016.9
20260504022544 11 185 0.0 0.0 0.00 0.00 0.00 53 1017.0
20260504022443 11 185 0.0 0.0 0.00 0.00 0.00 53 1016.9
20260504022342 11 185 0.0 0.0 0.00 0.00 0.00 52 1016.9
20260504022244 11 185 0.0 0.0 0.00 0.00 0.00 53 1016.9
20260504022140 11 185 0.0 0.0 0.00 0.00 0.00 53 1016.9
20260504022039 11 185 0.0 0.0 0.00 0.00 0.00 53 1016.9
20260504021940 11 185 0.0 0.0 0.00 0.00 0.00 52 1016.9
20260504021839 11 185 0.0 0.0 0.00 0.00 0.00 52 1016.9
20260504021740 11 185 0.0 0.0 0.00 0.00 0.00 52 1016.9
20260504021639 12 185 0.0 0.0 0.00 0.00 0.00 52 1016.7
20260504021539 11 185 0.0 0.0 0.00 0.00 0.00 53 1016.7
20260504021439 11 185 0.0 0.0 0.00 0.00 0.00 52 1016.7
20260504021339 12 185 0.0 0.0 0.00 0.00 0.00 52 1016.7
20260504021241 12 185 0.0 0.0 0.00 0.00 0.00 53 1016.7
20260504021139 12 185 0.0 0.0 0.00 0.00 0.00 53 1016.6
20260504021039 12 185 0.0 0.0 0.00 0.00 0.00 53 1016.6
20260504020939 12 185 0.0 0.0 0.00 0.00 0.00 53 1016.6
20260504020841 12 185 0.0 0.0 0.00 0.00 0.00 52 1016.6
20260504020740 12 185 0.0 0.0 0.00 0.00 0.00 53 1016.6
20260504020639 12 185 0.0 0.0 0.00 0.00 0.00 53 1016.6
20260504020539 12 185 0.0 0.0 0.00 0.00 0.00 52 1016.7
20260504020440 12 185 0.0 0.0 0.00 0.00 0.00 52 1016.6
20260504020339 12 185 0.0 0.0 0.00 0.00 0.00 52 1016.6
20260504020239 12 185 0.0 0.0 0.00 0.00 0.00 52 1016.6
20260504020139 12 185 0.0 0.0 0.00 0.00 0.00 52 1016.5
20260504020040 12 185 0.0 0.0 0.00 0.00 0.00 52 1016.5
20260504015940 12 185 0.0 0.0 0.00 0.00 0.00 52 1016.5
20260504015840 12 185 0.0 0.0 0.00 0.00 0.00 53 1016.6
20260504015739 12 185 0.0 0.0 0.00 0.00 0.00 52 1016.5
20260504015640 12 185 0.0 0.0 0.00 0.00 0.00 52 1016.6
20260504015539 12 185 0.0 1.6 0.00 0.00 0.00 52 1016.5
20260504015440 12 185 0.0 3.2 0.00 0.00 0.00 52 1016.5
20260504015339 12 185 0.0 3.2 0.00 0.00 0.00 52 1016.5
20260504015239 12 185 0.0 3.2 0.00 0.00 0.00 52 1016.4
20260504015140 12 185 1.6 3.2 0.00 0.00 0.00 52 1016.5
20260504015039 12 185 1.6 3.2 0.00 0.00 0.00 52 1016.4
20260504014940 12 185 1.6 3.2 0.00 0.00 0.00 52 1016.4
20260504014836 12 185 1.6 3.2 0.00 0.00 0.00 52 1016.4
20260504014736 12 185 1.6 3.2 0.00 0.00 0.00 52 1016.3
20260504014636 12 185 1.6 3.2 0.00 0.00 0.00 51 1016.2
20260504014535 12 185 0.0 3.2 0.00 0.00 0.00 51 1016.2
20260504014436 12 185 0.0 3.2 0.00 0.00 0.00 51 1016.2
20260504014336 12 185 0.0 3.2 0.00 0.00 0.00 51 1016.2
20260504014234 12 186 0.0 4.8 0.00 0.00 0.00 51 1016.1
20260504014136 12 186 0.0 4.8 0.00 0.00 0.00 52 1016.1
20260504014037 12 186 1.6 4.8 0.00 0.00 0.00 52 1016.1
20260504013935 12 186 1.6 4.8 0.00 0.00 0.00 52 1016.1
20260504013834 12 186 1.6 4.8 0.00 0.00 0.00 52 1016.1
20260504013735 12 186 1.6 4.8 0.00 0.00 0.00 51 1016.0
20260504013637 12 186 1.6 4.8 0.00 0.00 0.00 51 1016.0
20260504013534 12 186 1.6 4.8 0.00 0.00 0.00 51 1016.0
20260504013435 12 186 1.6 4.8 0.00 0.00 0.00 51 1016.0
20260504013335 12 186 1.6 4.8 0.00 0.00 0.00 51 1016.1
20260504013237 12 186 1.6 4.8 0.00 0.00 0.00 51 1016.0
20260504013135 12 186 1.6 4.8 0.00 0.00 0.00 50 1016.0
20260504013035 12 185 1.6 4.8 0.00 0.00 0.00 51 1016.0
20260504012935 12 185 1.6 4.8 0.00 0.00 0.00 51 1015.9
20260504012836 12 186 1.6 4.8 0.00 0.00 0.00 51 1015.9
20260504012736 12 186 1.6 4.8 0.00 0.00 0.00 51 1015.9
20260504012635 12 185 1.6 4.8 0.00 0.00 0.00 51 1015.9
20260504012535 12 186 1.6 4.8 0.00 0.00 0.00 51 1015.9
20260504012435 12 186 1.6 4.8 0.00 0.00 0.00 51 1016.0
20260504012336 12 186 1.6 4.8 0.00 0.00 0.00 51 1015.9
20260504012236 12 186 1.6 6.4 0.00 0.00 0.00 51 1016.0
20260504012137 12 186 1.6 6.4 0.00 0.00 0.00 51 1015.9
20260504012036 12 186 1.6 6.4 0.00 0.00 0.00 51 1016.0
20260504011936 12 186 1.6 6.4 0.00 0.00 0.00 51 1016.0
20260504011835 12 188 1.6 6.4 0.00 0.00 0.00 52 1016.0
20260504011735 12 188 1.6 6.4 0.00 0.00 0.00 51 1016.0
20260504011636 12 188 1.6 6.4 0.00 0.00 0.00 51 1016.0
20260504011531 12 188 1.6 6.4 0.00 0.00 0.00 51 1016.0
20260504011430 12 188 1.6 6.4 0.00 0.00 0.00 51 1016.0
20260504011332 12 186 1.6 6.4 0.00 0.00 0.00 51 1016.0
20260504011230 12 188 1.6 6.4 0.00 0.00 0.00 51 1015.9
20260504011132 12 188 1.6 6.4 0.00 0.00 0.00 51 1015.9
20260504011031 12 189 1.6 6.4 0.00 0.00 0.00 51 1016.0
20260504010932 12 188 1.6 6.4 0.00 0.00 0.00 51 1015.9
20260504010833 12 188 1.6 6.4 0.00 0.00 0.00 50 1015.8
20260504010732 12 184 1.6 6.4 0.00 0.00 0.00 51 1015.9
20260504010632 12 184 1.6 6.4 0.00 0.00 0.00 51 1015.8
20260504010530 12 185 1.6 6.4 0.00 0.00 0.00 51 1015.8
20260504010432 12 185 1.6 6.4 0.00 0.00 0.00 51 1015.9
20260504010331 12 185 1.6 6.4 0.00 0.00 0.00 51 1015.8
20260504010230 12 207 1.6 6.4 0.00 0.00 0.00 51 1015.7
20260504010131 12 177 1.6 4.8 0.00 0.00 0.00 52 1015.9
20260504010031 12 177 1.6 4.8 0.00 0.00 0.00 51 1015.9
20260504005931 12 177 1.6 8.0 0.00 0.00 0.00 51 1015.8
20260504005832 12 177 1.6 8.0 0.00 0.00 0.00 52 1015.8
20260504005731 12 179 3.2 8.0 0.00 0.00 0.00 51 1015.8
20260504005632 12 179 3.2 8.0 0.00 0.00 0.00 50 1015.7
20260504005531 12 175 3.2 8.0 0.00 0.00 0.00 50 1015.8
20260504005432 12 175 3.2 8.0 0.00 0.00 0.00 50 1015.8
20260504005331 13 175 3.2 8.0 0.00 0.00 0.00 50 1015.8
20260504005233 12 175 3.2 8.0 0.00 0.00 0.00 50 1015.7
20260504005131 13 175 3.2 8.0 0.00 0.00 0.00 50 1015.8
20260504005032 13 175 3.2 8.0 0.00 0.00 0.00 50 1015.8
20260504004932 13 169 3.2 9.7 0.00 0.00 0.00 50 1015.8
20260504004831 13 168 3.2 9.7 0.00 0.00 0.00 49 1015.7
20260504004730 13 168 3.2 9.7 0.00 0.00 0.00 49 1015.7
20260504004631 13 157 3.2 9.7 0.00 0.00 0.00 49 1015.7
20260504004531 13 157 3.2 9.7 0.00 0.00 0.00 49 1015.7
20260504004431 13 155 3.2 9.7 0.00 0.00 0.00 48 1015.7
20260504004331 13 155 4.8 9.7 0.00 0.00 0.00 48 1015.7
20260504004227 13 156 4.8 9.7 0.00 0.00 0.00 48 1015.7
20260504004127 13 155 4.8 9.7 0.00 0.00 0.00 48 1015.8
20260504004026 13 154 4.8 9.7 0.00 0.00 0.00 48 1015.8
20260504003927 13 161 4.8 8.0 0.00 0.00 0.00 48 1015.7
20260504003827 13 160 4.8 8.0 0.00 0.00 0.00 48 1015.6
20260504003727 13 166 3.2 8.0 0.00 0.00 0.00 48 1015.7
20260504003627 13 166 4.8 8.0 0.00 0.00 0.00 48 1015.8
20260504003527 13 166 3.2 8.0 0.00 0.00 0.00 48 1015.6
20260504003426 13 163 3.2 8.0 0.00 0.00 0.00 47 1015.8
20260504003328 13 169 3.2 6.4 0.00 0.00 0.00 47 1015.7
20260504003226 13 180 3.2 4.8 0.00 0.00 0.00 47 1015.7
20260504003123 13 182 3.2 6.4 0.00 0.00 0.00 46 1015.6
20260504003020 13 187 3.2 6.4 0.00 0.00 0.00 46 1015.6
20260504002919 13 187 3.2 6.4 0.00 0.00 0.00 46 1015.7
20260504002816 13 187 3.2 6.4 0.00 0.00 0.00 46 1015.6
20260504002718 13 188 3.2 6.4 0.00 0.00 0.00 46 1015.6
20260504002617 13 188 3.2 6.4 0.00 0.00 0.00 46 1015.7
20260504002511 13 188 3.2 6.4 0.00 0.00 0.00 45 1015.6
20260504002408 13 188 3.2 6.4 0.00 0.00 0.00 45 1015.6
20260504002307 13 189 3.2 6.4 0.00 0.00 0.00 46 1015.6
20260504002207 13 188 3.2 6.4 0.00 0.00 0.00 46 1015.6
20260504002104 13 200 3.2 6.4 0.00 0.00 0.00 45 1015.5
20260504002004 13 244 3.2 4.8 0.00 0.00 0.00 45 1015.6
20260504001902 13 245 1.6 4.8 0.00 0.00 0.00 45 1015.6
20260504001702 13 245 1.6 3.2 0.00 0.00 0.00 45 1015.6
20260504001602 13 245 1.6 3.2 0.00 0.00 0.00 45 1015.5
20260504001502 13 115 1.6 3.2 0.00 0.00 0.00 44 1015.6
20260504001400 13 115 1.6 3.2 0.00 0.00 0.00 45 1015.5
20260504001301 13 115 1.6 3.2 0.00 0.00 0.00 45 1015.5
20260504001200 13 115 1.6 3.2 0.00 0.00 0.00 44 1015.6
20260504001057 13 113 0.0 3.2 0.00 0.00 0.00 44 1015.5
20260504000950 14 141 0.0 3.2 0.00 0.00 0.00 44 1015.5
20260504000850 14 141 0.0 3.2 0.00 0.00 0.00 44 1015.6
20260504000751 14 141 0.0 3.2 0.00 0.00 0.00 44 1015.5
20260504000652 14 141 0.0 3.2 0.00 0.00 0.00 44 1015.6
20260504000551 14 141 0.0 0.0 0.00 0.00 0.00 44 1015.5
20260504000450 14 141 0.0 1.6 0.00 0.00 0.00 44 1015.5
20260504000349 14 141 0.0 3.2 0.00 0.00 0.00 44 1015.5
20260504000248 14 141 0.0 3.2 0.00 0.00 0.00 44 1015.5
20260504000148 14 141 0.0 3.2 0.00 0.00 0.00 44 1015.5
20260504000049 14 141 0.0 3.2 0.00 0.00 0.00 44 1015.5
20260503235947 14 141 1.6 3.2 0.00 0.00 0.00 44 1015.5
20260503235845 14 141 1.6 3.2 0.00 0.00 0.00 44 1015.5
20260503235744 14 141 1.6 3.2 0.00 0.00 0.00 44 1015.5
20260503235643 14 141 1.6 3.2 0.00 0.00 0.00 44 1015.6
20260503235542 14 141 1.6 3.2 0.00 0.00 0.00 44 1015.5
20260503235440 14 141 1.6 3.2 0.00 0.00 0.00 44 1015.5
20260503235339 15 141 1.6 3.2 0.00 0.00 0.00 44 1015.6
20260503235239 15 141 1.6 4.8 0.00 0.00 0.00 44 1015.6
20260503235138 15 141 1.6 4.8 0.00 0.00 0.00 44 1015.5
20260503235038 15 141 1.6 4.8 0.00 0.00 0.00 44 1015.5
20260503234940 15 87 1.6 4.8 0.00 0.00 0.00 44 1015.6
20260503234838 15 130 1.6 4.8 0.00 0.00 0.00 44 1015.5
20260503234736 15 130 1.6 6.4 0.00 0.00 0.00 44 1015.4
20260503234637 15 130 3.2 6.4 0.00 0.00 0.00 44 1015.4
20260503234536 15 130 3.2 8.0 0.00 0.00 0.00 43 1015.4
20260503234435 15 130 3.2 8.0 0.00 0.00 0.00 43 1015.4
20260503234331 15 130 3.2 8.0 0.00 0.00 0.00 44 1015.5
20260503234225 15 99 3.2 8.0 0.00 0.00 0.00 43 1015.5
20260503234124 15 140 3.2 8.0 0.00 0.00 0.00 43 1015.4
20260503234025 15 140 3.2 8.0 0.00 0.00 0.00 43 1015.4
20260503233924 15 144 3.2 8.0 0.00 0.00 0.00 41 1015.4
20260503233824 15 167 3.2 8.0 0.00 0.00 0.00 41 1015.4
20260503233720 15 167 3.2 8.0 0.00 0.00 0.00 41 1015.3
20260503233618 15 167 3.2 8.0 0.00 0.00 0.00 40 1015.4
20260503233519 16 159 3.2 8.0 0.00 0.00 0.00 40 1015.4
20260503233418 16 160 3.2 8.0 0.00 0.00 0.00 40 1015.3
20260503233318 16 159 3.2 8.0 0.00 0.00 0.00 40 1015.3
20260503233219 16 159 3.2 8.0 0.00 0.00 0.00 40 1015.3
20260503233118 16 205 3.2 6.4 0.00 0.00 0.00 39 1015.4
20260503233018 16 211 3.2 8.0 0.00 0.00 0.00 39 1015.4
20260503232919 16 161 3.2 8.0 0.00 0.00 0.00 40 1015.4
20260503232819 16 161 3.2 8.0 0.00 0.00 0.00 39 1015.4
20260503232718 16 161 3.2 8.0 0.00 0.00 0.00 40 1015.4
20260503232614 16 161 1.6 8.0 0.00 0.00 0.00 39 1015.3
20260503232512 16 161 1.6 8.0 0.00 0.00 0.00 39 1015.4
20260503232412 16 161 1.6 8.0 0.00 0.00 0.00 40 1015.4
20260503232312 16 161 1.6 8.0 0.00 0.00 0.00 39 1015.4
20260503232212 16 163 1.6 8.0 0.00 0.00 0.00 39 1015.4
20260503232111 16 159 1.6 8.0 0.00 0.00 0.00 39 1015.4
20260503232011 16 157 0.0 4.8 0.00 0.00 0.00 40 1015.3
20260503231911 16 157 0.0 4.8 0.00 0.00 0.00 39 1015.4
20260503231811 16 157 0.0 3.2 0.00 0.00 0.00 39 1015.3
20260503231711 16 157 0.0 3.2 0.00 0.00 0.00 39 1015.4
20260503231611 16 157 0.0 0.0 0.00 0.00 0.00 39 1015.3
20260503231512 16 148 0.0 0.0 0.00 0.00 0.00 39 1015.4
20260503231408 16 146 0.0 0.0 0.00 0.00 0.00 40 1015.4
20260503231307 16 144 0.0 0.0 0.00 0.00 0.00 39 1015.4
20260503231207 16 144 0.0 0.0 0.00 0.00 0.00 39 1015.4
20260503231104 16 144 0.0 0.0 0.00 0.00 0.00 40 1015.4
20260503231002 16 143 0.0 0.0 0.00 0.00 0.00 40 1015.4
20260503230904 16 143 0.0 0.0 0.00 0.00 0.00 40 1015.4
20260503230800 16 143 0.0 0.0 0.00 0.00 0.00 39 1015.4
20260503230701 16 143 0.0 0.0 0.00 0.00 0.00 39 1015.4
20260503230559 16 143 0.0 0.0 0.00 0.00 0.00 40 1015.5
20260503230457 16 143 0.0 0.0 0.00 0.00 0.00 39 1015.4
20260503230358 16 143 0.0 0.0 0.00 0.00 0.00 39 1015.4
20260503230259 16 143 0.0 0.0 0.00 0.00 0.00 38 1015.4
20260503230158 16 143 0.0 0.0 0.00 0.00 0.00 38 1015.4
20260503230059 16 144 0.0 0.0 0.00 0.00 0.00 39 1015.4
20260503225958 16 144 0.0 0.0 0.00 0.00 0.00 38 1015.4
20260503225857 16 142 0.0 0.0 0.00 0.00 0.00 38 1015.4
20260503225757 16 142 0.0 0.0 0.00 0.00 0.00 38 1015.4
20260503225656 16 140 0.0 0.0 0.00 0.00 0.00 38 1015.3
20260503225557 16 130 0.0 0.0 0.00 0.00 0.00 39 1015.4
20260503225456 16 130 0.0 0.0 0.00 0.00 0.00 38 1015.4
20260503225357 16 128 0.0 0.0 0.00 0.00 0.00 39 1015.4
20260503225257 16 183 0.0 0.0 0.00 0.00 0.00 38 1015.4
20260503225155 16 186 0.0 0.0 0.00 0.00 0.00 38 1015.4
20260503225054 16 184 0.0 0.0 0.00 0.00 0.00 38 1015.4
20260503224953 16 179 0.0 0.0 0.00 0.00 0.00 40 1015.4
20260503224850 16 179 0.0 0.0 0.00 0.00 0.00 39 1015.4
20260503224742 16 179 0.0 8.0 0.00 0.00 0.00 38 1015.4
20260503224640 16 179 1.6 8.0 0.00 0.00 0.00 38 1015.3
20260503224540 16 177 1.6 8.0 0.00 0.00 0.00 39 1015.4
20260503224440 16 174 1.6 8.0 0.00 0.00 0.00 40 1015.4
20260503224341 16 174 1.6 8.0 0.00 0.00 0.00 39 1015.4
20260503224241 16 174 1.6 9.7 0.00 0.00 0.00 38 1015.4
20260503224137 16 175 1.6 9.7 0.00 0.00 0.00 37 1015.4
20260503224038 17 142 1.6 9.7 0.00 0.00 0.00 38 1015.5
20260503223937 17 142 1.6 9.7 0.00 0.00 0.00 38 1015.4
20260503223835 17 129 1.6 9.7 0.00 0.00 0.00 38 1015.4
20260503223732 17 173 1.6 9.7 0.00 0.00 0.00 38 1015.4
20260503223633 17 328 1.6 9.7 0.00 0.00 0.00 39 1015.4
20260503223532 17 242 1.6 9.7 0.00 0.00 0.00 38 1015.5
20260503223430 17 242 1.6 9.7 0.00 0.00 0.00 37 1015.4
20260503223329 17 241 1.6 9.7 0.00 0.00 0.00 39 1015.4
20260503223221 17 192 1.6 9.7 0.00 0.00 0.00 38 1015.4
20260503223119 17 190 1.6 9.7 0.00 0.00 0.00 37 1015.5
20260503223020 17 190 1.6 9.7 0.00 0.00 0.00 37 1015.5
20260503222919 17 191 1.6 9.7 0.00 0.00 0.00 37 1015.4
20260503222819 17 191 1.6 9.7 0.00 0.00 0.00 36 1015.5
20260503222713 17 191 1.6 9.7 0.00 0.00 0.00 36 1015.4
20260503222612 17 191 3.2 9.7 0.00 0.00 0.00 36 1015.5
20260503222513 17 194 3.2 9.7 0.00 0.00 0.00 36 1015.4
20260503222413 17 190 1.6 8.0 0.00 0.00 0.00 37 1015.5
20260503222313 17 297 1.6 8.0 0.00 0.00 0.00 36 1015.5
20260503222206 17 299 1.6 8.0 0.00 0.00 0.00 36 1015.5
20260503222106 17 310 1.6 8.0 0.00 0.00 0.00 36 1015.4
20260503222007 17 291 1.6 8.0 0.00 0.00 0.00 37 1015.5
20260503221907 17 289 1.6 8.0 0.00 0.00 0.00 36 1015.5
20260503221807 17 290 1.6 8.0 0.00 0.00 0.00 35 1015.5
20260503221657 17 289 1.6 8.0 0.00 0.00 0.00 36 1015.4
20260503221557 17 171 1.6 8.0 0.00 0.00 0.00 37 1015.4
20260503221456 17 173 1.6 9.7 0.00 0.00 0.00 36 1015.5
20260503221357 17 173 1.6 9.7 0.00 0.00 0.00 35 1015.4
20260503221256 17 173 1.6 9.7 0.00 0.00 0.00 36 1015.6
20260503221157 17 171 1.6 9.7 0.00 0.00 0.00 37 1015.5
20260503221055 17 169 1.6 9.7 0.00 0.00 0.00 37 1015.5
20260503220954 17 169 3.2 9.7 0.00 0.00 0.00 37 1015.5
20260503220853 17 169 3.2 9.7 0.00 0.00 0.00 37 1015.5
20260503220751 17 169 3.2 9.7 0.00 0.00 0.00 35 1015.5
20260503220651 17 169 3.2 9.7 0.00 0.00 0.00 35 1015.5
20260503220548 17 171 1.6 9.7 0.00 0.00 0.00 36 1015.5
20260503220448 17 177 1.6 6.4 0.00 0.00 0.00 37 1015.6
20260503220347 17 178 1.6 6.4 0.00 0.00 0.00 37 1015.5
20260503220245 17 259 3.2 9.7 0.00 0.00 0.00 35 1015.5
20260503220137 17 232 3.2 9.7 0.00 0.00 0.00 35 1015.6
20260503220038 17 244 3.2 9.7 0.00 0.00 0.00 37 1015.5
20260503215939 17 123 3.2 9.7 0.00 0.00 0.00 37 1015.5
20260503215837 17 188 3.2 9.7 0.00 0.00 0.00 36 1015.6
20260503215734 17 188 3.2 9.7 0.00 0.00 0.00 36 1015.6
20260503215628 17 178 3.2 9.7 0.00 0.00 0.00 37 1015.5
20260503215528 17 175 3.2 9.7 0.00 0.00 0.00 37 1015.5
20260503215428 17 175 3.2 9.7 0.00 0.00 0.00 36 1015.5
20260503215328 17 163 3.2 8.0 0.00 0.00 0.00 37 1015.5
20260503215228 17 163 3.2 8.0 0.00 0.00 0.00 37 1015.5
20260503215127 17 119 3.2 8.0 0.00 0.00 0.00 37 1015.6
20260503215027 17 121 3.2 8.0 0.00 0.00 0.00 37 1015.6
20260503214924 17 198 3.2 8.0 0.00 0.00 0.00 37 1015.6
20260503214824 17 272 3.2 11.3 0.00 0.00 0.00 37 1015.6
20260503214723 17 272 3.2 11.3 0.00 0.00 0.00 35 1015.6
20260503214615 17 329 3.2 11.3 0.00 0.00 0.00 35 1015.7
20260503214516 17 219 3.2 11.3 0.00 0.00 0.00 35 1015.7
20260503214414 17 126 3.2 11.3 0.00 0.00 0.00 38 1015.7
20260503214313 17 131 3.2 11.3 0.00 0.00 0.00 36 1015.7
20260503214212 17 131 3.2 11.3 0.00 0.00 0.00 36 1015.7
20260503214106 17 131 3.2 11.3 0.00 0.00 0.00 36 1015.7
20260503214005 17 131 1.6 11.3 0.00 0.00 0.00 36 1015.7
20260503213906 17 129 1.6 11.3 0.00 0.00 0.00 36 1015.7
20260503213806 17 168 1.6 9.7 0.00 0.00 0.00 37 1015.7
20260503213706 17 131 0.0 9.7 0.00 0.00 0.00 36 1015.7
20260503213601 17 156 0.0 9.7 0.00 0.00 0.00 35 1015.7
20260503213500 18 163 0.0 0.0 0.00 0.00 0.00 34 1015.7
20260503213401 18 134 0.0 0.0 0.00 0.00 0.00 36 1015.7
20260503213302 18 188 0.0 4.8 0.00 0.00 0.00 35 1015.8
20260503213201 18 191 1.6 4.8 0.00 0.00 0.00 36 1015.8
20260503213050 18 157 1.6 4.8 0.00 0.00 0.00 34 1015.9
20260503212949 18 160 1.6 4.8 0.00 0.00 0.00 33 1015.8
20260503212850 18 217 1.6 4.8 0.00 0.00 0.00 33 1015.8
20260503212749 18 217 1.6 4.8 0.00 0.00 0.00 34 1015.9
20260503212651 18 188 1.6 8.0 0.00 0.00 0.00 36 1015.8
20260503212543 18 185 1.6 8.0 0.00 0.00 0.00 38 1015.9
20260503212444 18 115 1.6 8.0 0.00 0.00 0.00 35 1015.8
20260503212344 18 115 1.6 8.0 0.00 0.00 0.00 37 1015.9
20260503212244 18 103 1.6 8.0 0.00 0.00 0.00 37 1015.9
20260503212145 18 250 1.6 8.0 0.00 0.00 0.00 37 1015.8
20260503212042 18 234 1.6 8.0 0.00 0.00 0.00 38 1015.9
20260503211941 18 188 1.6 8.0 0.00 0.00 0.00 37 1015.9
20260503211842 18 190 0.0 8.0 0.00 0.00 0.00 36 1015.9
20260503211741 18 231 0.0 8.0 0.00 0.00 0.00 35 1015.8
20260503211641 18 355 0.0 4.8 0.00 0.00 0.00 35 1015.9
20260503211533 18 11 0.0 0.0 0.00 0.00 0.00 36 1016.0
20260503211432 18 11 0.0 0.0 0.00 0.00 0.00 36 1016.0
20260503211333 18 9 0.0 0.0 0.00 0.00 0.00 36 1016.1
20260503211231 17 153 0.0 0.0 0.00 0.00 0.00 37 1016.1
20260503211128 17 161 0.0 0.0 0.00 0.00 0.00 36 1016.1
20260503211027 17 281 0.0 0.0 0.00 0.00 0.00 36 1016.1
20260503210926 17 28 0.0 0.0 0.00 0.00 0.00 36 1016.0
20260503210825 17 261 0.0 0.0 0.00 0.00 0.00 35 1016.0
20260503210725 17 342 0.0 0.0 0.00 0.00 0.00 35 1016.1
20260503210623 17 237 0.0 0.0 0.00 0.00 0.00 35 1016.1
20260503210524 17 146 0.0 0.0 0.00 0.00 0.00 35 1016.0
20260503210419 17 212 0.0 0.0 0.00 0.00 0.00 34 1016.0
20260503210320 17 167 0.0 0.0 0.00 0.00 0.00 33 1016.1
20260503210219 17 173 0.0 0.0 0.00 0.00 0.00 33 1016.0
20260503210116 17 173 0.0 0.0 0.00 0.00 0.00 35 1016.0
20260503210007 17 172 0.0 0.0 0.00 0.00 0.00 36 1016.1
20260503205906 17 167 0.0 0.0 0.00 0.00 0.00 37 1016.1
20260503205807 17 173 0.0 0.0 0.00 0.00 0.00 35 1016.1
20260503205707 17 162 0.0 0.0 0.00 0.00 0.00 35 1016.1
20260503205607 17 151 0.0 0.0 0.00 0.00 0.00 36 1016.0
20260503205500 17 198 0.0 0.0 0.00 0.00 0.00 34 1016.0
20260503205400 17 182 0.0 0.0 0.00 0.00 0.00 35 1016.1
20260503205303 17 182 0.0 0.0 0.00 0.00 0.00 35 1016.1
20260503205200 17 198 0.0 0.0 0.00 0.00 0.00 36 1016.1
20260503205101 17 163 0.0 0.0 0.00 0.00 0.00 37 1016.1
20260503204957 18 140 0.0 0.0 0.00 0.00 0.00 35 1016.1
20260503204857 18 145 0.0 0.0 0.00 0.00 0.00 35 1016.0
20260503204756 18 163 0.0 0.0 0.00 0.00 0.00 34 1016.1
20260503204657 18 139 0.0 0.0 0.00 0.00 0.00 35 1016.1
20260503204555 18 196 0.0 0.0 0.00 0.00 0.00 35 1016.1
20260503204446 18 145 0.0 0.0 0.00 0.00 0.00 37 1016.1
20260503204346 18 119 0.0 0.0 0.00 0.00 0.00 35 1016.1
20260503204246 18 202 0.0 0.0 0.00 0.00 0.00 36 1016.1
20260503204147 18 150 0.0 0.0 0.00 0.00 0.00 34 1016.1
20260503204044 18 161 0.0 0.0 0.00 0.00 0.00 35 1016.1
20260503203940 18 146 0.0 0.0 0.00 0.00 0.00 35 1016.2
20260503203839 18 200 0.0 0.0 0.00 0.00 0.00 36 1016.1
20260503203738 18 107 0.0 0.0 0.00 0.00 0.00 35 1016.1
20260503203640 18 64 0.0 0.0 0.00 0.00 0.00 35 1016.2
20260503203538 18 148 0.0 0.0 0.00 0.00 0.00 33 1016.2
20260503203433 18 171 0.0 0.0 0.00 0.00 0.00 33 1016.2
20260503203331 18 98 0.0 0.0 0.00 0.00 0.00 32 1016.2
20260503203234 18 96 0.0 0.0 0.00 0.00 0.00 31 1016.2
20260503203132 18 340 0.0 0.0 0.00 0.00 0.00 31 1016.2
20260503203033 18 279 0.0 0.0 0.00 0.00 0.00 33 1016.2
20260503202922 17 93 0.0 9.7 0.00 0.00 0.00 31 1016.2
20260503202822 18 147 0.0 9.7 0.00 0.00 0.00 32 1016.3
20260503202723 18 119 0.0 9.7 0.00 0.00 0.00 32 1016.3
20260503202623 18 132 0.0 9.7 0.00 0.00 0.00 31 1016.2
20260503202523 18 144 0.0 9.7 0.00 0.00 0.00 32 1016.2
20260503202420 18 144 0.0 9.7 0.00 0.00 0.00 30 1016.2
20260503202320 17 147 0.0 9.7 0.00 0.00 0.00 31 1016.2
20260503202221 18 144 0.0 9.7 0.00 0.00 0.00 30 1016.3
20260503202118 18 66 1.6 9.7 0.00 0.00 0.00 31 1016.2
20260503202016 17 155 1.6 9.7 0.00 0.00 0.00 29 1016.3
20260503201917 17 155 3.2 14.5 0.00 0.00 0.00 30 1016.3
20260503201815 18 103 3.2 14.5 0.00 0.00 0.00 31 1016.3
20260503201713 18 306 3.2 14.5 0.00 0.00 0.00 29 1016.3
20260503201613 17 306 3.2 14.5 0.00 0.00 0.00 30 1016.4
20260503201511 17 150 4.8 14.5 0.00 0.00 0.00 30 1016.3
20260503201359 17 150 4.8 14.5 0.00 0.00 0.00 30 1016.3
20260503201300 17 142 4.8 14.5 0.00 0.00 0.00 32 1016.3
20260503201200 17 151 4.8 14.5 0.00 0.00 0.00 30 1016.4
20260503201100 17 198 4.8 14.5 0.00 0.00 0.00 29 1016.4
20260503201001 17 175 3.2 14.5 0.00 0.00 0.00 32 1016.4
20260503200854 17 248 3.2 11.3 0.00 0.00 0.00 31 1016.4
20260503200755 17 201 3.2 11.3 0.00 0.00 0.00 33 1016.5
20260503200655 17 201 1.6 11.3 0.00 0.00 0.00 30 1016.5
20260503200555 17 204 1.6 11.3 0.00 0.00 0.00 29 1016.4
20260503200454 17 196 1.6 11.3 0.00 0.00 0.00 30 1016.5
20260503200349 17 267 0.0 9.7 0.00 0.00 0.00 30 1016.5
20260503200249 17 110 0.0 4.8 0.00 0.00 0.00 30 1016.5
20260503200149 17 142 0.0 4.8 0.00 0.00 0.00 29 1016.6
20260503200049 17 141 0.0 4.8 0.00 0.00 0.00 30 1016.6
20260503195948 17 104 0.0 0.0 0.00 0.00 0.00 32 1016.6
20260503195841 17 90 0.0 0.0 0.00 0.00 0.00 30 1016.6
20260503195738 17 307 0.0 0.0 0.00 0.00 0.00 28 1016.6
20260503195638 17 306 0.0 0.0 0.00 0.00 0.00 28 1016.6
20260503195537 17 287 0.0 0.0 0.00 0.00 0.00 28 1016.7
20260503195438 17 304 0.0 0.0 0.00 0.00 0.00 28 1016.9
20260503195332 17 265 0.0 0.0 0.00 0.00 0.00 29 1016.7
20260503195232 17 300 0.0 0.0 0.00 0.00 0.00 29 1016.7
20260503195133 17 286 0.0 9.7 0.00 0.00 0.00 28 1016.7
20260503195032 17 283 0.0 9.7 0.00 0.00 0.00 31 1016.7
20260503194933 17 330 0.0 9.7 0.00 0.00 0.00 30 1016.7
20260503194829 17 293 1.6 9.7 0.00 0.00 0.00 31 1016.7
20260503194726 17 254 1.6 9.7 0.00 0.00 0.00 31 1016.6
20260503194626 17 241 1.6 9.7 0.00 0.00 0.00 31 1016.6
20260503194527 17 116 1.6 9.7 0.00 0.00 0.00 31 1016.6
20260503194428 17 170 3.2 9.7 0.00 0.00 0.00 30 1016.7
20260503194320 17 170 3.2 9.7 0.00 0.00 0.00 28 1016.7